Location: Scenic
(43.7797°N, 102.5549°W)
Time: 20:15:19
(UTC-06:00)

Envisat - Visible Passes

Search period start: 19 June 2018 00:00
Search period end: 29 June 2018 00:00
Orbit: 764 x 766 km, 98.2° (Epoch: 19 June)

Date Brightness Start Highest point End Pass type
(mag) Time Alt. Az. Time Alt. Az. Time Alt. Az.
19 Jun 5.9 21:42:09 10° WSW 21:43:44 11° W 21:45:20 10° WNW visible
22 Jun 5.7 21:29:39 10° WSW 21:32:26 15° W 21:35:13 10° NW visible
25 Jun 5.5 21:17:39 10° SW 21:21:09 18° W 21:24:39 10° NW visible
27 Jun 6.1 21:46:33 10° W 21:47:03 10° W 21:47:33 10° W visible
28 Jun 5.3 21:05:53 10° SW 21:09:52 23° W 21:13:53 10° NW visible
